Wind_Speed
4 4 2 2 4 4 3 2 5 6 11 13 9 8 9 8 6 5 6 5 5 5 5 5 6 6 5 4 4 3 4 5 6 6 5 4 3 2 3 3 3 3 5 10 16 21 23 24 24 23 22 22 22 20 19 19 19 19 20 21 20 18 17 16 16 17 17 16 16 16 16 17 18 17 16 15 15 14 13 13 12 12 11 10 9 9
5 4 3 6 7 5 2 5 10 11 12 12 10 9 7 6 5 3 6 6 3 3 4 3 5 6 5 4 4 4 5 5 5 4 3 4 3 2 5 5 5 5 6 11 15 19 23 23 23 23 23 23 22 21 20 20 21 20 21 21 21 20 19 19 18 17 17 16 15 14 15 17 19 19 20 19 18 16 16 16 16 15 14 13 12 12
5 1 6 6 4 5 6 9 13 12 11 9 7 8 6 5 6 5 3 3 0 1 4 2 4 5 4 3 4 4 4 3 3 3 3 6 5 3 2 5 6 6 7 9 12 16 20 21 23 23 22 22 21 21 21 21 21 20 20 20 21 21 21 20 19 19 19 17 16 14 14 16 17 18 19 19 19 19 19 20 20 19 17 16 15 15
3 3 7 1 9 11 8 8 11 9 7 6 7 8 7 7 7 3 2 0 3 4 5 5 4 3 3 3 3 3 3 2 3 5 6 5 2 4 2 3 6 7 7 7 8 12 17 19 21 22 21 20 19 19 19 20 20 19 19 19 19 20 21 20 19 20 19 19 18 17 16 16 16 17 18 18 19 19 19 20 21 21 20 20 19 18
4 5 3 8 11 9 8 7 9 8 4 3 6 8 9 8 7 7 4 4 7 5 4 6 4 3 3 4 3 2 2 3 2 3 4 3 3 3 1 2 5 6 6 7 6 7 13 17 19 20 19 18 18 17 17 18 18 18 19 18 18 19 20 19 19 19 19 20 20 20 19 19 19 20 21 21 21 20 19 19 20 19 19 19 20 20
5 6 5 11 9 7 8 6 5 7 5 2 2 8 13 13 10 11 10 8 6 1 4 3 4 3 4 3 2 2 3 2 2 1 2 1 3 0 2 2 3 6 6 7 7 8 12 16 18 19 18 17 18 18 17 17 16 17 17 17 18 19 19 19 19 19 20 21 21 22 22 21 20 21 22 22 21 20 20 19 19 18 17 17 18 20
3 5 7 10 9 7 7 4 2 4 7 3 2 10 15 16 15 13 11 6 4 3 5 2 4 1 4 4 1 2 2 2 2 2 1 1 3 2 3 3 4 5 5 6 7 9 12 16 18 17 16 17 19 18 18 17 16 16 16 17 17 18 18 19 19 20 20 21 22 22 21 21 19 19 19 19 19 18 18 18 19 18 18 17 18 18
1 6 9 10 8 7 5 3 1 4 8 3 4 13 16 15 14 12 8 4 3 3 1 2 4 3 2 4 1 3 0 2 2 3 3 4 4 4 4 3 4 5 5 6 5 7 11 14 16 16 16 18 18 16 16 16 16 15 15 16 16 16 17 18 18 19 20 21 21 21 20 19 18 16 16 16 17 18 18 18 19 19 18 18 18 18
1 6 8 9 8 5 3 4 4 6 7 3 6 12 13 12 10 8 5 3 2 4 2 2 2 4 2 4 2 3 1 3 5 6 5 6 5 4 3 3 6 6 6 7 6 7 11 14 15 15 16 16 15 14 14 14 15 14 14 15 15 16 16 16 16 17 18 19 20 20 20 19 18 16 15 14 14 16 18 18 19 19 17 18 19 19
1 5 8 9 6 4 4 6 7 8 5 4 7 9 8 6 6 5 5 3 4 4 2 5 2 5 1 3 2 2 3 4 6 6 6 7 5 4 3 5 7 6 6 6 8 11 13 15 16 16 16 16 14 13 13 12 13 14 14 14 15 15 15 15 15 15 15 18 19 20 20 19 20 19 17 17 15 15 18 18 19 19 17 17 19 19
1 1 4 6 5 5 6 4 6 8 8 7 7 7 6 5 4 4 3 3 5 2 4 5 4 4 1 3 4 4 4 6 6 5 7 7 6 6 6 7 7 6 6 6 8 11 13 16 17 17 16 15 14 13 12 12 12 13 13 13 14 14 13 13 15 15 15 17 20 20 20 19 20 20 19 19 17 17 19 19 19 20 18 18 19 19
5 5 3 4 5 6 6 5 5 7 8 7 5 5 5 4 4 4 4 4 5 1 5 5 5 4 2 4 6 6 5 7 8 6 9 8 6 8 9 9 8 7 7 6 7 9 12 14 16 17 17 15 14 12 12 12 12 12 12 12 12 12 11 11 13 15 16 18 20 20 20 20 20 20 19 19 19 19 20 20 19 19 19 20 22 21
4 3 2 4 4 6 7 6 4 3 4 5 4 5 5 2 3 2 2 2 2 3 4 5 6 2 1 4 6 8 7 8 9 7 9 7 7 11 12 10 8 7 8 7 6 7 10 12 14 16 18 17 15 13 12 12 12 11 10 10 10 9 9 9 11 15 17 18 18 18 17 18 18 18 17 16 18 20 21 20 19 19 20 22 23 23
3 5 3 3 1 3 7 7 3 1 1 5 5 4 4 3 2 0 2 1 1 2 2 4 5 1 3 3 5 9 8 9 10 8 7 6 8 12 12 11 9 8 8 7 6 7 9 12 14 16 17 18 16 14 13 12 11 10 9 10 9 8 8 9 11 14 15 15 14 13 13 14 14 14 13 14 17 20 21 19 17 18 19 20 21 22
2 3 3 1 2 3 4 6 7 6 4 5 4 5 4 4 4 3 3 2 2 2 2 2 3 1 1 3 4 7 7 8 7 4 4 5 8 11 11 11 10 8 7 6 6 7 11 14 16 16 17 18 17 15 14 13 11 10 9 9 8 6 7 10 11 11 13 13 12 11 11 11 10 10 9 11 14 16 18 17 16 17 17 16 18 21
4 2 6 3 1 3 3 4 5 7 2 3 2 4 1 3 5 3 3 4 4 2 2 2 1 1 2 3 2 3 3 6 4 4 7 9 10 13 11 10 9 7 6 6 5 7 11 15 17 18 17 16 16 15 15 15 12 10 9 9 8 5 7 11 11 11 12 12 11 10 9 9 9 10 9 8 11 13 15 15 15 17 16 14 17 20
3 2 6 3 3 2 3 2 3 5 2 1 2 2 4 3 8 5 1 1 4 4 1 1 1 1 2 3 3 2 2 5 6 7 9 11 12 13 10 9 8 7 7 7 7 9 13 15 17 20 18 16 17 16 15 15 13 10 8 9 8 5 8 11 10 11 12 11 10 10 9 8 8 9 10 8 10 12 13 13 13 15 14 14 16 19
4 1 5 1 4 1 2 4 5 2 3 4 2 4 2 3 4 5 3 2 4 3 1 1 3 2 1 1 2 3 5 6 6 7 9 9 10 10 9 10 10 9 8 8 9 11 14 15 15 20 20 16 16 17 16 16 14 9 7 8 8 7 9 11 9 10 10 9 10 9 9 9 8 8 9 9 10 11 11 11 11 11 13 15 16 17
4 3 6 3 3 2 6 7 5 6 3 4 3 2 3 3 1 2 3 2 2 2 1 2 1 2 2 3 5 6 8 8 6 7 9 8 8 9 9 10 10 8 7 7 7 9 13 16 16 20 21 17 15 16 16 17 14 9 8 8 7 8 11 11 9 9 8 8 9 9 9 8 8 9 9 10 10 10 11 11 11 12 15 16 17 17
2 5 2 7 2 2 5 5 2 5 5 3 2 4 3 3 3 1 1 3 4 4 1 1 1 2 3 5 8 10 10 9 7 7 8 9 9 10 10 10 9 9 8 8 7 7 12 16 17 19 23 20 15 15 18 19 15 10 9 9 7 9 12 11 9 7 6 7 8 10 10 8 7 9 11 11 11 10 11 12 12 13 15 16 16 16
3 4 1 6 6 4 2 1 2 2 2 4 4 4 4 2 2 1 1 1 4 5 3 2 1 4 5 4 9 11 9 8 9 7 7 9 10 9 10 11 10 9 9 8 7 8 12 16 14 15 22 22 16 13 15 16 13 11 10 7 7 9 11 10 7 4 5 6 7 10 12 10 8 10 10 10 10 11 12 12 12 13 14 15 14 14
2 3 3 1 4 4 0 2 1 4 5 4 3 1 1 1 3 4 2 3 2 4 4 5 3 5 5 3 8 10 8 7 8 7 8 9 9 8 9 11 11 10 9 9 8 10 14 17 13 11 19 23 18 12 10 10 11 13 10 6 8 10 10 8 4 3 4 6 8 11 12 11 11 11 11 10 11 13 14 14 13 14 15 14 14 15
2 4 4 2 1 1 1 3 4 4 5 6 3 1 2 2 4 5 2 1 2 3 2 4 3 4 6 2 6 7 5 6 7 10 10 9 9 9 9 10 10 10 9 9 10 13 16 17 13 13 19 24 20 13 10 11 15 15 10 8 11 11 8 5 3 3 4 7 11 12 12 13 12 11 11 12 12 14 14 14 14 14 15 15 16 16
2 4 4 2 3 3 4 6 6 6 6 5 3 2 3 2 2 5 4 3 3 3 2 4 2 4 5 1 5 6 5 6 8 11 12 9 8 8 8 8 8 9 9 8 10 14 16 15 13 15 22 23 20 16 12 13 16 14 10 12 13 10 7 5 4 4 5 9 12 13 13 13 12 12 12 12 12 13 13 13 14 13 14 16 17 16
2 2 4 4 3 5 6 7 7 7 4 2 2 4 3 3 4 3 2 4 4 2 3 5 1 5 6 1 6 7 7 8 9 10 12 11 8 8 8 8 8 7 7 8 9 10 12 13 13 16 22 22 20 18 14 13 15 13 12 13 12 9 7 5 4 5 8 11 13 13 14 13 12 11 12 11 11 12 13 14 14 13 14 17 17 16
3 2 3 5 3 1 0 2 2 2 2 2 3 4 5 6 5 4 2 4 3 1 3 5 4 3 3 2 7 7 8 9 9 8 8 8 9 8 8 8 8 8 9 9 8 7 10 13 13 14 20 22 21 19 14 12 13 13 13 13 10 8 8 7 6 8 11 13 13 13 13 12 11 10 10 10 11 12 14 14 14 13 15 17 17 16
4 2 3 6 6 5 5 5 4 3 2 1 2 5 6 6 6 6 5 4 3 2 4 1 5 3 3 2 4 3 4 6 6 6 5 6 8 8 8 8 9 9 9 8 8 8 9 11 12 14 18 21 21 18 13 11 11 12 14 12 9 8 9 9 10 11 13 13 13 12 12 11 10 9 9 10 12 13 14 14 13 14 16 17 16 16
5 3 2 6 5 6 7 5 3 4 5 4 2 4 5 5 7 7 5 4 5 5 3 3 4 6 1 2 4 3 2 3 4 5 6 6 7 7 8 8 9 8 8 7 8 9 9 8 10 12 15 19 19 15 11 10 11 13 13 10 8 8 9 11 12 13 13 12 12 11 10 9 8 8 9 10 12 13 13 14 14 16 17 17 17 17
6 1 1 4 2 3 4 3 2 4 4 4 5 6 5 6 8 7 4 5 6 6 4 5 6 7 4 4 6 6 5 5 5 6 5 4 4 6 8 9 9 8 7 6 5 6 5 6 6 6 10 16 17 14 11 11 13 13 11 8 8 8 9 11 13 13 12 12 11 10 8 8 8 8 9 9 11 12 12 13 15 16 17 17 18 18
5 0 3 3 3 1 2 1 1 4 3 2 2 4 6 7 7 5 3 4 6 6 6 6 7 6 5 6 7 6 4 5 3 0 1 2 4 7 8 7 7 5 3 3 3 3 4 6 7 7 10 14 14 11 10 12 13 11 9 8 7 8 9 12 12 12 12 11 10 9 7 7 7 7 8 9 11 12 12 13 14 15 16 17 19 19
4 1 3 3 4 3 4 3 1 4 6 4 4 3 6 6 5 4 3 4 7 6 5 7 8 3 4 4 4 2 1 4 4 5 5 3 2 6 5 2 1 2 4 4 4 4 4 7 10 11 12 12 11 9 10 13 12 10 8 7 7 8 10 11 11 11 11 10 8 7 6 6 6 7 8 9 11 12 13 13 14 15 15 16 19 20
4 0 2 5 4 3 5 2 1 4 8 7 6 3 4 5 4 1 1 4 7 7 6 7 6 3 4 3 3 3 5 6 6 5 5 5 5 6 6 5 5 6 7 6 6 6 6 8 12 15 16 15 13 12 12 13 11 10 9 7 6 9 10 9 10 10 9 8 6 6 6 6 7 8 9 10 11 12 13 12 13 14 14 16 18 19
3 3 1 4 3 4 6 1 1 5 7 4 3 2 3 3 3 2 2 2 5 7 6 5 4 6 4 5 5 3 5 5 3 3 4 5 7 8 7 7 7 7 7 6 6 6 7 10 14 16 16 15 14 12 12 13 12 10 8 5 5 8 9 8 8 8 7 6 5 6 6 7 8 9 9 9 10 11 12 13 14 13 13 15 17 17
3 5 2 3 4 3 5 3 5 5 2 3 6 5 6 5 6 5 3 1 3 4 5 4 4 4 4 6 7 6 5 4 2 2 4 6 7 7 6 6 6 6 5 5 5 6 10 13 15 15 14 13 13 12 12 12 11 9 6 3 4 7 7 6 6 5 4 3 4 4 5 7 9 9 10 9 10 11 12 12 13 13 12 14 16 16
3 4 1 1 4 1 2 6 5 1 5 6 6 2 5 7 8 7 4 1 2 7 8 7 6 6 7 6 7 8 7 5 4 6 6 6 8 8 7 7 6 6 6 4 4 7 10 13 14 13 13 13 12 11 11 10 8 6 5 2 2 5 5 3 2 1 1 1 2 3 5 7 9 10 10 11 11 12 12 12 13 13 13 13 14 15
4 4 2 2 2 1 3 4 2 4 6 5 6 3 3 4 5 7 6 5 2 5 9 9 7 7 7 6 6 7 7 6 6 5 4 6 8 9 9 7 7 8 8 8 9 10 12 13 12 10 9 9 9 9 8 7 6 4 3 2 2 4 5 2 2 2 3 3 4 4 5 7 9 11 12 13 14 14 13 13 14 13 13 14 14 15
6 4 2 2 2 2 3 2 1 2 4 5 4 1 2 2 3 5 4 3 6 3 6 9 7 6 5 7 7 6 6 6 6 3 1 5 8 9 10 11 11 12 13 14 14 13 12 11 8 6 5 5 7 8 8 7 6 4 3 3 3 4 5 5 5 5 6 7 7 6 6 8 10 12 14 15 16 16 15 15 15 15 14 15 15 16
5 3 3 3 1 2 4 2 2 2 2 6 6 5 3 3 6 7 5 1 6 5 5 8 8 7 6 7 7 5 5 6 4 2 4 4 7 9 10 12 15 17 17 16 15 13 12 10 7 6 5 6 7 8 9 9 7 5 4 4 4 6 8 8 8 8 9 11 10 9 9 11 13 14 16 17 19 18 17 16 16 16 16 16 17 18
7 3 4 5 2 2 5 3 2 2 4 6 7 7 5 3 7 7 5 2 6 6 5 8 8 7 6 7 7 6 5 3 3 5 5 5 7 9 10 11 14 17 17 15 14 13 12 11 9 7 6 7 7 8 9 9 7 6 6 6 5 7 10 10 11 12 13 13 13 12 13 14 15 17 18 20 21 20 18 17 17 17 17 17 19 20
6 4 4 3 1 0 3 2 2 3 4 5 6 7 5 3 8 9 3 5 7 6 5 7 8 7 7 7 6 6 5 5 5 6 5 7 9 10 13 14 14 16 17 15 13 12 12 12 10 8 7 7 7 6 7 8 7 7 8 8 7 10 12 13 14 15 15 15 15 16 17 18 19 20 21 23 24 22 19 18 18 18 19 19 20 21
2 2 2 2 2 1 3 1 2 3 4 5 5 6 4 4 8 5 4 7 6 6 5 6 9 7 7 7 5 4 5 7 7 5 5 8 8 8 13 18 18 17 17 16 14 13 13 12 10 8 7 6 5 4 5 5 6 8 9 9 11 13 15 15 16 16 16 16 18 19 21 21 22 23 24 25 26 23 21 20 19 19 20 21 22 24
1 1 1 2 2 1 2 2 1 3 4 4 4 4 1 4 1 4 6 4 5 6 4 4 7 6 6 6 5 5 4 5 5 5 5 7 8 8 13 18 18 16 15 14 14 13 12 11 10 8 7 6 5 5 4 5 7 9 10 11 13 15 16 16 17 17 17 19 20 22 24 25 25 27 27 27 27 25 22 22 21 21 22 23 25 26
4 3 1 2 3 1 2 3 2 2 5 5 5 0 2 3 5 6 2 1 4 5 4 4 5 5 6 5 4 5 5 4 6 6 6 7 8 10 15 18 17 17 15 14 14 14 13 12 11 10 10 8 7 6 6 7 9 11 12 13 14 16 17 18 19 19 20 21 22 24 25 26 27 28 28 29 29 26 24 24 23 23 24 26 27 28
2 3 1 2 2 2 2 1 3 4 6 6 6 3 3 5 6 6 5 3 3 4 4 5 5 6 7 7 6 6 6 5 7 7 6 7 8 11 15 17 17 17 16 15 15 14 14 14 14 13 11 10 8 7 8 10 12 13 14 15 15 15 16 17 18 20 22 24 26 27 28 28 28 29 29 30 29 27 26 25 25 24 26 27 28 29
3 4 4 3 2 3 4 6 6 4 5 5 5 5 6 5 4 6 7 5 3 4 4 5 6 6 6 7 7 5 5 7 8 7 7 7 7 8 10 11 13 15 16 15 14 14 16 16 15 13 11 10 9 9 10 11 13 14 14 14 14 15 17 18 19 21 22 24 24 24 23 23 23 25 26 26 26 27 27 25 24 24 26 28 28 28
4 3 4 3 0 0 1 3 3 2 3 3 2 2 4 5 4 4 6 5 4 6 6 6 7 7 6 6 5 4 5 7 7 5 5 4 3 4 6 8 10 13 15 15 14 16 17 15 13 11 10 10 10 10 11 13 13 14 15 15 16 17 17 16 14 14 14 16 17 19 20 21 22 22 23 23 23 22 21 20 21 24 26 27 27 27
3 1 3 2 1 2 1 4 5 5 4 2 2 2 1 2 3 4 5 5 5 6 7 7 7 7 6 6 6 5 6 6 5 2 1 3 3 2 3 4 7 11 15 16 15 15 15 14 11 10 10 10 10 10 12 13 13 12 13 13 13 12 11 10 12 15 17 18 21 22 21 21 21 20 20 20 19 18 18 20 22 24 26 27 27 26
2 1 1 0 1 2 2 4 5 4 3 0 4 4 3 3 3 2 3 5 5 6 6 8 8 7 6 6 7 7 5 5 6 6 5 4 3 4 5 3 2 6 9 11 10 8 9 10 9 9 10 11 10 10 9 9 9 9 11 12 12 12 13 15 17 18 19 20 21 21 20 18 17 17 17 17 17 19 20 23 25 25 26 27 27 27
1 1 0 1 1 2 2 3 4 5 6 5 2 3 4 5 5 4 3 4 5 5 6 7 7 6 6 6 7 8 7 6 6 8 7 5 5 7 8 6 4 3 2 1 2 4 5 7 8 8 8 7 7 7 9 13 14 14 14 14 14 15 16 17 18 19 19 19 19 19 18 15 14 15 16 17 18 20 22 25 26 27 27 27 27 27
1 1 1 3 2 1 3 3 1 3 1 3 2 3 5 5 6 6 3 2 2 3 4 4 3 4 5 8 11 11 7 5 8 11 9 7 7 8 7 8 7 6 4 3 1 0 1 2 3 2 5 8 10 13 15 16 16 15 15 16 16 18 19 18 19 19 18 18 19 18 16 14 13 15 17 19 21 23 25 27 28 28 29 29 28 26
3 4 4 5 4 5 7 6 4 5 4 5 5 4 5 4 6 5 3 2 1 2 3 5 7 7 7 8 14 16 10 8 11 12 10 7 7 8 9 11 11 10 8 7 8 10 12 12 11 12 13 14 15 16 17 16 15 15 15 16 18 20 20 19 19 19 19 19 19 17 15 14 17 20 21 23 26 28 30 31 31 30 29 29 29 28
Wind_Direction
83 64 355 244 245 249 235 143 126 124 118 120 112 107 119 114 118 146 146 174 168 105 40 38 82 80 65 54 30 28 50 53 57 64 69 62 46 94 116 126 136 112 86 81 81 85 86 83 79 77 76 76 74 69 68 66 59 55 54 53 53 53 54 55 54 52 52 53 52 51 50 48 45 41 37 34 30 29 26 23 21 16 13 5 359 357
55 66 282 241 221 230 222 110 103 101 104 109 111 108 101 100 106 111 131 161 204 108 69 47 80 63 46 48 20 28 57 38 39 74 105 84 56 89 120 119 110 97 80 74 73 77 82 83 80 75 73 71 69 65 62 60 58 57 56 55 56 57 58 58 58 58 56 54 53 52 53 53 49 44 41 36 32 31 30 29 26 23 20 14 12 10
36 45 274 253 165 98 76 94 99 103 107 107 112 109 98 105 94 49 67 140 257 91 107 99 84 58 34 60 43 33 56 36 18 33 61 56 24 3 93 102 92 82 72 67 65 71 79 81 80 75 70 68 67 65 62 61 61 60 57 57 57 57 57 57 59 60 60 59 60 61 57 54 49 45 43 41 39 37 36 35 32 30 25 21 20 18
46 293 294 6 105 96 81 84 94 98 98 103 118 114 119 145 128 98 276 138 46 68 120 123 94 53 18 41 55 55 74 73 34 28 54 65 340 301 326 73 95 92 82 76 70 75 81 81 80 77 71 66 65 66 66 64 62 59 56 56 58 59 57 57 59 60 62 63 63 65 63 58 53 47 44 44 42 38 35 33 31 31 29 27 26 24
44 323 347 74 88 95 88 78 92 98 76 84 124 127 137 153 140 131 143 100 61 57 127 120 74 360 354 7 349 12 57 82 72 61 87 118 245 265 7 65 113 119 108 102 96 92 89 84 80 77 72 65 60 62 66 64 60 58 57 58 60 62 62 60 60 60 61 62 60 60 60 58 54 49 43 40 37 35 34 32 29 28 27 27 28 27
30 351 51 80 79 85 88 87 101 115 109 67 97 131 139 139 128 123 123 109 83 79 223 131 69 315 320 352 332 3 12 45 70 91 120 156 263 199 109 155 146 125 119 120 121 111 95 86 79 74 69 65 64 67 70 66 62 61 59 60 61 61 62 61 60 60 60 60 57 53 51 48 47 45 41 36 33 32 34 33 32 32 29 27 27 27
18 12 66 86 90 84 80 84 78 109 108 79 101 124 130 131 130 137 138 127 128 186 226 156 111 236 311 316 251 82 349 348 34 311 294 253 253 193 175 199 154 122 120 121 111 102 95 89 85 79 73 74 75 76 76 70 65 64 63 62 62 61 60 58 57 56 57 57 55 52 50 46 45 44 39 35 33 32 32 33 33 34 35 32 28 27
29 50 68 79 81 74 69 80 86 106 100 111 153 126 126 131 136 150 146 130 159 159 66 51 107 116 313 283 181 111 294 298 274 257 250 238 231 200 198 186 138 131 126 112 96 95 98 95 92 89 86 83 81 78 78 78 73 68 66 66 65 63 60 57 54 53 53 53 51 49 47 45 43 39 34 30 31 31 28 29 30 30 31 30 29 26
169 86 91 89 80 74 91 129 133 101 97 161 161 126 130 136 139 146 122 89 105 103 56 316 87 94 293 283 64 88 242 262 251 242 235 231 217 197 201 156 130 128 119 114 118 118 111 106 102 99 96 92 87 82 79 81 80 73 69 68 65 62 59 55 53 52 52 50 46 43 40 39 34 29 28 23 25 31 26 24 24 23 25 26 25 23
157 128 127 109 101 124 136 133 120 101 106 156 129 113 117 116 115 115 105 88 60 77 201 242 137 100 282 270 121 159 227 231 236 235 234 229 203 188 178 138 136 128 118 122 129 131 125 117 110 105 102 99 97 95 87 84 85 80 71 65 62 59 58 55 50 48 51 49 44 39 34 33 29 23 21 17 19 27 25 23 19 14 19 23 19 17
53 105 120 110 126 151 141 113 106 117 127 122 102 92 79 55 48 67 77 87 70 24 245 220 176 127 146 248 194 192 210 199 200 213 224 216 180 169 156 141 145 133 129 137 132 135 131 121 117 113 109 104 102 102 98 92 90 86 76 68 64 57 54 55 50 46 50 47 42 37 31 28 25 19 17 20 24 24 21 21 16 10 14 20 17 14
8 7 39 113 135 130 111 73 80 112 115 102 91 92 84 32 12 24 4 37 87 257 259 205 177 121 107 232 211 209 215 183 179 197 209 202 163 153 151 146 148 139 141 144 134 139 136 129 127 124 121 116 108 104 105 103 97 91 85 80 73 58 54 59 55 51 53 48 43 38 30 25 20 13 14 24 28 23 18 16 12 7 10 14 10 5
355 341 46 116 122 113 108 86 64 51 63 86 99 92 88 49 16 23 340 8 114 241 250 172 150 110 227 235 197 193 201 178 182 203 202 188 147 144 149 147 149 148 146 143 142 153 150 144 140 133 131 127 116 110 112 114 110 103 103 101 86 66 65 70 62 59 58 51 43 39 32 27 19 11 14 24 24 17 11 7 6 4 6 7 2 357
337 319 360 74 55 119 122 120 125 251 119 133 143 122 109 113 92 75 262 332 143 225 238 139 112 61 290 286 185 177 184 180 189 206 201 178 141 143 148 147 152 152 144 145 154 162 161 157 150 143 139 134 127 126 129 133 132 126 126 122 100 75 73 78 74 68 60 47 38 37 35 30 23 16 17 18 14 9 3 359 0 359 358 358 356 356
94 325 310 114 189 172 142 159 167 166 164 181 175 130 129 154 142 169 199 174 162 199 300 28 61 129 235 278 209 169 169 177 184 197 170 138 133 143 147 147 151 149 145 155 163 163 163 160 155 151 146 143 140 142 149 154 151 143 138 134 121 90 74 86 91 78 60 49 45 46 42 32 27 23 17 14 12 9 3 359 3 2 357 353 354 358
102 232 257 255 205 136 148 202 156 118 127 234 161 98 168 198 140 130 169 162 152 121 5 8 18 203 203 285 344 90 159 170 134 107 117 121 133 142 146 149 148 149 155 164 164 167 170 163 158 154 149 151 155 157 161 164 163 154 144 141 143 118 90 99 97 77 65 64 61 54 43 31 26 24 19 21 22 15 6 3 7 6 1 358 359 0
88 273 275 327 16 102 168 227 101 112 155 227 114 162 239 174 120 114 114 75 88 88 17 9 68 338 2 355 9 39 204 166 122 121 128 130 134 136 141 147 148 157 164 166 170 177 180 173 161 156 155 160 168 170 169 171 173 164 144 142 148 133 111 110 96 78 74 72 62 49 40 38 33 26 24 24 18 11 7 7 6 2 1 2 0 358
125 230 286 38 73 337 338 43 50 77 120 108 156 225 235 67 82 102 105 31 56 91 279 45 124 163 78 334 239 200 202 176 148 149 142 134 133 131 140 150 154 161 162 169 178 178 183 182 169 162 165 170 175 179 177 178 182 174 151 144 135 128 130 122 102 87 79 66 55 47 45 50 49 36 29 26 16 7 5 3 3 6 4 1 358 357
111 106 294 306 104 352 1 47 34 338 15 116 181 228 89 89 6 39 112 151 113 119 281 6 91 189 173 197 197 189 198 188 174 169 150 139 137 133 142 152 153 155 159 172 181 181 187 190 183 172 173 176 178 184 186 185 188 178 159 154 130 128 142 131 109 94 76 59 54 46 40 47 53 42 27 20 15 11 8 4 3 10 8 3 4 6
86 106 288 303 331 26 14 45 42 321 337 30 39 9 41 132 156 145 143 153 133 135 163 76 330 262 223 200 183 188 199 185 180 185 155 143 145 141 147 154 155 162 172 177 178 188 192 192 188 178 177 179 176 184 191 191 191 173 152 155 139 136 143 129 109 96 71 57 54 43 33 33 41 34 18 9 13 24 30 24 17 18 16 11 10 9
46 85 140 299 333 31 26 325 176 173 18 24 33 13 346 356 72 88 64 70 121 134 144 138 194 264 254 199 177 190 197 179 180 179 144 144 151 148 150 157 165 172 178 181 179 190 193 192 191 176 174 177 173 178 188 189 191 176 153 148 138 136 138 126 113 104 71 57 51 36 31 40 52 45 31 24 32 41 39 34 31 28 21 15 13 14
67 87 111 340 6 53 46 283 172 138 117 111 107 53 332 18 71 81 28 334 81 119 145 143 151 262 265 196 179 189 182 174 175 153 137 151 155 153 158 164 171 174 178 182 180 188 195 197 194 162 164 176 174 173 175 167 173 173 160 145 138 134 130 123 116 106 78 56 44 35 38 57 64 50 42 46 48 43 36 33 32 28 24 25 26 24
110 99 89 66 47 124 321 3 51 77 87 99 94 91 126 95 91 114 137 304 39 57 95 110 109 262 267 200 173 179 160 157 155 140 142 158 162 167 174 171 170 173 178 180 183 192 193 192 182 150 159 176 176 170 161 150 158 163 152 142 140 129 117 109 100 96 78 50 48 55 60 62 55 46 49 54 51 44 40 38 33 31 33 32 27 23
66 77 77 42 321 311 333 360 19 23 47 70 25 18 87 64 102 139 154 145 74 28 71 84 65 266 284 307 146 146 123 130 143 145 150 163 175 180 178 174 173 174 179 182 189 193 185 181 178 158 161 174 175 171 165 154 158 158 145 145 142 121 103 97 90 89 70 56 64 72 66 55 51 57 62 60 55 48 42 37 33 33 31 22 16 15
65 86 88 70 5 348 348 351 358 1 20 71 355 359 45 56 71 84 82 85 62 29 127 113 145 250 281 347 127 135 127 137 156 160 160 167 178 183 179 180 181 175 182 192 191 188 182 189 193 172 167 173 172 174 171 155 156 157 147 148 141 111 96 96 85 76 66 68 75 71 59 55 60 67 67 60 52 42 33 28 26 24 19 13 11 11
98 124 109 113 123 136 219 294 296 311 332 350 347 6 33 45 59 81 77 66 65 37 85 112 168 237 309 64 125 142 143 150 168 174 173 175 177 183 183 181 183 182 190 195 188 187 194 201 200 179 171 174 174 176 172 153 152 154 150 149 134 98 86 83 76 75 75 77 74 66 60 63 68 68 61 50 39 30 24 23 22 18 12 10 9 9
84 69 95 129 151 175 183 216 221 160 104 51 2 27 45 54 65 91 95 87 133 113 46 130 172 108 21 67 121 140 152 166 189 194 193 190 181 184 184 180 187 192 195 193 187 196 203 205 201 184 174 177 178 177 170 160 158 155 149 144 121 90 80 81 85 89 86 79 71 68 68 67 64 58 47 37 32 29 26 23 19 12 8 7 7 7
86 43 78 128 158 195 189 207 219 123 128 172 160 72 70 73 71 79 99 135 140 99 49 249 158 106 141 190 131 140 166 174 213 223 217 209 193 186 183 185 194 197 195 196 198 207 211 211 206 189 178 178 177 174 173 168 159 149 140 131 111 92 84 89 98 97 87 75 69 70 67 57 51 46 42 39 33 29 25 19 14 10 8 7 7 5
104 88 183 131 135 225 204 192 120 111 136 166 152 136 122 108 100 100 131 163 139 120 174 201 131 126 191 196 156 173 179 174 209 233 222 196 179 181 181 186 198 204 204 206 207 212 216 220 216 189 176 176 172 174 177 160 146 140 131 122 109 92 91 100 100 93 84 75 70 69 61 52 50 46 41 33 24 19 14 11 11 10 10 9 6 3
101 242 240 118 85 319 273 267 96 106 121 96 106 147 141 129 124 116 130 146 112 116 160 156 125 148 209 203 194 213 200 174 180 349 57 109 163 192 194 193 202 206 194 179 169 171 185 194 189 172 172 176 173 176 172 151 143 139 131 124 109 95 103 105 97 89 85 78 73 70 60 51 45 35 23 12 8 7 5 6 10 11 12 9 2 357
83 223 240 93 75 328 312 314 24 83 106 85 36 80 114 105 93 84 103 110 91 97 136 125 121 175 243 201 191 240 116 120 87 63 49 38 144 175 173 164 149 122 116 113 111 105 112 137 145 144 149 156 157 158 157 153 150 143 136 128 109 107 114 107 97 94 89 82 78 69 49 37 25 11 3 358 357 359 359 2 7 7 8 8 0 351
71 144 321 64 81 287 288 268 309 55 80 62 21 39 100 98 100 118 155 138 129 135 132 107 117 203 237 143 96 48 79 94 85 85 73 47 64 105 111 100 98 111 117 116 111 106 104 116 123 125 127 131 135 144 155 158 153 145 141 130 115 122 123 111 102 100 94 86 76 55 33 17 5 356 350 348 349 352 353 352 356 0 4 4 359 351
94 101 36 80 111 274 284 238 42 38 53 25 315 207 148 112 117 110 51 112 143 143 137 137 173 211 197 124 101 67 73 89 96 100 95 85 77 79 87 95 109 127 136 137 136 126 121 125 126 124 126 129 132 141 156 160 154 149 145 131 130 136 129 115 109 104 96 84 57 35 23 5 352 342 335 334 339 343 344 344 346 352 359 357 353 349
76 98 128 126 118 274 300 40 57 38 52 247 249 205 169 151 137 122 93 147 167 141 134 146 160 172 151 125 127 126 109 116 138 107 106 113 100 89 87 88 103 123 123 116 121 124 127 132 132 131 132 136 139 142 150 156 155 153 152 145 150 148 137 125 118 106 87 60 25 9 4 350 338 328 319 319 325 329 333 337 340 345 348 348 347 346
68 80 119 93 95 150 344 48 61 283 233 244 280 275 155 143 134 120 77 15 142 121 114 117 131 152 153 140 135 131 129 135 117 96 107 121 116 111 105 97 104 114 110 108 119 131 136 137 139 142 141 145 152 153 155 161 164 166 171 193 192 166 157 149 132 114 11 347 343 340 339 332 324 314 306 307 312 316 322 331 335 337 336 337 342 342
119 102 92 67 87 82 34 64 134 238 256 286 323 341 127 109 95 89 52 347 293 134 129 138 158 176 159 135 131 134 135 127 95 88 122 136 127 123 120 119 121 121 131 146 145 143 144 140 141 147 150 158 172 178 181 184 188 197 223 268 238 188 186 217 259 267 273 283 295 303 307 309 308 303 300 303 304 306 315 324 327 329 327 327 332 335
123 116 82 65 95 104 89 99 241 308 314 311 319 290 182 166 149 128 105 299 278 236 152 144 160 185 155 124 133 141 124 95 71 37 225 149 134 131 132 135 135 130 134 138 137 140 149 149 144 147 162 183 195 200 204 200 199 222 258 272 254 226 229 249 262 263 268 277 284 287 284 285 291 295 297 299 298 300 308 315 318 321 320 317 319 323
97 120 132 117 72 86 98 81 11 17 300 258 247 260 264 178 160 137 112 317 286 265 171 139 150 174 148 121 136 132 84 77 85 283 257 179 143 130 131 138 137 134 135 135 134 139 148 154 157 164 188 211 211 209 210 207 211 234 246 247 252 244 242 252 260 262 268 274 277 279 279 277 279 286 293 295 293 295 299 304 308 312 312 309 308 311
53 59 101 97 44 65 100 112 172 195 245 241 234 261 276 167 132 95 70 324 277 255 182 140 147 166 148 134 141 120 86 94 192 242 246 201 164 141 138 148 145 141 144 147 149 155 159 160 156 154 175 200 204 207 212 212 223 243 245 246 254 250 250 258 265 267 271 276 277 278 278 277 276 280 286 289 289 289 291 295 297 301 304 304 302 302
31 23 56 72 322 124 107 121 216 223 242 238 235 254 250 145 93 74 49 267 253 237 199 148 150 168 157 143 134 119 124 161 205 233 224 198 187 159 147 156 160 158 159 160 162 166 166 165 164 157 163 180 188 199 212 218 232 249 254 257 259 257 262 271 275 274 275 277 280 281 280 277 275 277 281 284 285 284 285 288 289 292 298 298 297 297
3 17 66 127 191 154 117 145 268 260 237 227 231 234 213 88 67 85 213 236 216 213 214 162 157 171 158 145 143 153 185 198 201 206 186 177 190 178 162 167 172 172 172 171 171 172 170 172 178 179 179 184 187 193 206 224 245 257 263 263 261 267 278 285 283 277 274 277 281 283 283 281 277 277 280 282 282 280 280 283 285 287 292 294 293 292
200 28 43 145 176 178 135 133 289 279 243 198 202 228 129 81 94 216 222 219 183 194 210 173 170 174 155 156 174 176 201 217 192 179 177 173 180 183 177 178 182 184 183 179 177 180 180 184 191 198 205 212 218 226 234 247 259 269 274 270 270 281 290 289 283 279 277 278 281 283 285 286 283 281 281 281 280 277 276 280 283 286 291 292 290 289
162 154 236 221 191 143 67 78 84 261 239 184 164 225 55 129 205 215 192 173 186 181 168 161 185 181 154 165 196 174 165 180 174 177 191 186 180 183 186 188 193 194 189 184 187 191 195 200 206 213 221 227 230 242 258 265 271 279 281 278 285 296 296 288 285 284 281 281 283 285 287 289 289 287 285 283 281 277 276 280 282 286 292 294 291 289
133 143 188 232 195 124 96 190 200 215 222 184 155 176 211 201 194 166 142 155 194 180 158 158 188 196 163 157 175 172 162 176 183 185 193 194 192 193 194 197 199 195 192 194 198 202 205 208 212 217 224 231 238 251 263 268 274 281 283 287 297 301 296 291 289 286 285 286 288 290 292 295 297 297 295 292 287 279 278 281 282 288 297 300 298 294
223 190 165 177 191 158 174 219 230 227 225 199 173 190 206 204 189 155 143 143 168 181 168 153 174 202 184 158 157 159 171 188 189 185 191 202 210 209 209 214 211 205 204 206 208 210 212 214 218 223 229 235 243 255 266 271 273 278 285 296 305 304 302 302 300 297 299 302 304 309 314 319 323 323 320 314 302 287 281 284 289 298 308 311 307 301
232 188 138 127 97 124 184 253 273 267 241 219 195 209 192 187 198 163 133 134 164 170 158 154 170 191 190 164 147 160 196 196 192 203 212 210 225 229 221 226 228 219 215 217 218 217 216 216 221 228 234 241 250 262 273 275 272 277 292 306 313 314 314 317 322 331 342 348 351 353 352 350 348 345 340 334 322 304 296 302 310 315 318 317 312 307
290 88 97 85 52 69 14 315 317 305 271 202 104 48 57 153 195 176 146 154 172 164 161 168 168 169 175 165 154 172 197 177 148 148 168 144 151 177 172 192 222 222 220 225 229 224 216 218 230 238 237 244 264 283 290 289 290 301 319 334 341 344 355 14 25 27 25 17 8 3 358 352 348 346 346 346 343 337 332 331 329 323 320 317 315 311
295 38 47 51 99 127 225 286 316 331 318 171 130 132 135 140 160 169 153 162 168 163 168 173 165 158 171 173 157 148 151 142 125 115 103 95 81 64 64 52 276 246 236 240 242 229 215 221 240 249 245 256 286 311 326 344 3 16 24 29 30 30 32 33 29 22 15 7 2 358 356 354 354 357 1 359 353 348 341 336 332 326 322 321 320 317
168 73 299 114 59 353 300 302 351 25 14 358 26 143 172 162 139 126 136 155 156 155 163 174 177 173 170 168 146 124 121 130 126 116 105 92 84 80 72 62 58 71 92 154 193 202 218 240 257 263 269 294 334 11 45 58 60 58 52 46 37 30 26 22 16 10 4 0 357 354 354 0 6 7 3 354 347 343 339 336 334 329 327 329 331 327
136 198 176 96 73 302 248 234 212 97 108 282 270 196 203 179 134 125 145 159 154 175 174 152 104 70 101 130 129 119 115 128 124 117 119 124 118 104 83 73 79 86 77 61 70 197 309 329 324 360 42 51 65 77 79 75 69 60 51 42 31 23 19 14 7 2 357 353 349 348 354 6 9 3 356 350 347 344 342 340 338 334 331 332 332 330
185 196 171 136 164 224 226 218 190 139 167 230 234 226 236 204 134 134 179 187 188 219 178 122 95 78 75 105 124 124 128 141 133 123 121 121 108 86 72 71 73 71 64 62 68 70 69 69 71 74 78 82 87 89 84 74 64 53 41 30 21 16 13 8 1 356 352 348 347 351 359 5 2 357 355 353 350 347 343 340 337 333 329 327 325 323
Height
780 792 797 797 796 792 790 792 796 800 805 814 823 830 835 841 847 845 841 837 831 841 854 853 855 859 858 858 855 852 850 851 853 852 852 851 851 852 852 854 855 854 853 852 852 852 852 853 854 855 855 856 856 855 855 854 853 852 851 851 850 849 848 846 845 844 843 842 841 840 839 838 838 837 836 835 835 834 834 833 832 831 831 830 829 829
784 798 800 792 791 789 788 792 797 803 807 814 824 832 838 842 846 843 840 837 832 841 855 854 855 860 860 859 856 852 851 853 854 852 852 852 852 852 853 855 854 853 853 853 853 853 854 855 855 856 857 856 856 856 856 855 854 854 853 853 852 851 850 849 847 846 845 844 843 842 842 841 840 839 838 837 836 836 835 834 833 833 832 831 830 830
796 800 796 788 787 789 792 795 799 806 811 818 825 833 843 845 845 846 842 838 835 842 855 856 858 863 861 859 858 855 854 856 855 852 853 855 855 855 854 853 852 852 853 854 854 855 855 856 856 857 857 858 858 857 857 857 857 856 856 855 854 854 852 851 850 848 847 846 845 845 844 843 842 841 840 839 838 837 837 836 835 834 833 832 831 831
805 800 790 785 785 790 797 798 801 810 815 821 826 835 846 843 842 851 850 843 839 843 853 857 859 862 860 858 858 858 857 857 856 854 855 856 857 857 855 853 853 854 855 856 857 857 857 857 857 858 858 859 859 859 859 859 859 859 858 858 857 856 855 853 852 851 850 849 848 847 846 845 844 843 842 841 840 839 838 837 836 835 834 834 833 832
802 794 785 785 788 792 799 802 804 813 821 823 824 830 841 840 839 846 848 846 847 850 850 851 859 863 860 860 860 858 858 859 859 857 857 859 860 858 856 855 855 855 856 858 858 858 858 857 857 858 859 860 860 860 861 861 861 861 860 860 859 858 857 856 854 853 852 851 850 848 847 846 845 844 843 842 841 840 839 838 837 837 836 835 834 833
797 790 785 790 794 795 800 806 807 812 820 824 823 824 830 836 839 843 846 850 861 866 852 847 863 869 862 861 862 860 860 860 860 857 857 860 860 858 857 856 856 856 857 858 858 858 858 857 857 858 859 860 861 862 862 862 862 862 862 862 861 860 859 858 857 856 854 853 851 850 849 848 847 846 845 844 843 842 841 840 839 838 837 836 835 834
796 790 789 794 797 799 803 808 809 809 818 828 825 822 826 832 839 845 846 851 864 867 850 844 860 870 867 862 861 862 862 861 860 859 858 859 859 858 857 857 857 857 857 858 858 858 858 858 858 858 860 861 862 863 863 864 864 864 864 863 862 861 860 860 858 857 856 854 853 852 851 850 849 848 847 846 845 844 843 841 840 839 838 836 835 834
795 794 796 797 800 805 808 811 810 806 818 829 823 820 828 834 839 843 842 845 851 852 849 847 853 866 872 864 859 862 864 864 863 861 860 859 859 858 856 856 856 857 857 858 860 860 859 859 859 860 861 862 863 864 865 865 865 865 865 865 864 863 862 861 860 858 857 856 855 854 853 852 851 850 849 848 846 845 844 842 841 840 839 837 836 835
794 797 801 801 805 812 811 810 806 804 817 824 817 818 826 830 835 838 838 842 844 848 857 855 851 866 876 865 860 864 866 866 863 860 859 857 858 858 856 856 857 857 858 859 861 861 860 860 861 861 862 862 864 865 865 866 866 866 866 866 865 864 863 862 861 859 858 857 856 855 854 853 852 851 850 848 847 846 844 843 841 840 839 838 837 836
793 794 796 799 807 811 808 805 802 804 814 816 813 817 821 827 833 834 838 843 845 853 861 858 852 865 877 869 865 870 870 867 862 857 856 854 856 857 856 857 858 858 860 860 861 861 861 861 862 862 862 863 864 865 866 867 867 867 867 866 865 864 863 863 862 860 859 858 857 856 855 853 853 851 850 849 847 846 844 843 842 841 839 838 837 836
791 789 790 795 802 804 802 803 802 804 809 810 814 822 826 830 832 834 840 843 852 862 858 853 853 860 871 871 867 868 863 859 859 858 855 853 855 857 857 858 858 859 860 861 861 862 862 862 862 863 863 863 865 866 867 867 867 867 867 867 866 865 864 863 862 861 859 859 857 856 855 854 853 852 850 849 847 846 845 843 842 841 840 839 838 837
795 794 795 794 795 797 802 806 806 805 807 810 819 827 834 841 840 842 847 846 859 868 853 847 851 854 864 866 860 857 851 849 853 854 851 851 854 856 857 858 858 859 860 860 862 862 862 862 862 862 862 863 864 865 867 867 868 867 867 867 866 865 865 863 863 861 860 859 858 857 856 855 853 852 851 849 848 847 845 844 843 841 840 839 838 837
803 802 800 797 795 796 805 815 817 814 813 818 825 831 842 855 857 859 861 858 862 862 848 844 848 853 859 855 850 850 848 846 847 846 845 847 852 855 855 857 858 859 860 860 862 862 862 862 862 862 862 862 863 865 866 867 867 867 866 866 865 865 864 863 863 862 861 860 859 858 857 856 855 853 852 850 849 847 846 844 843 841 840 839 838 836
815 808 800 801 802 797 803 818 826 825 822 825 828 831 842 857 866 871 872 869 865 857 847 842 845 856 859 850 845 845 844 843 841 841 842 844 849 853 853 856 858 858 859 860 861 862 862 862 862 862 862 862 863 863 865 865 865 865 864 864 864 864 864 863 862 862 861 860 859 859 858 856 855 854 852 851 849 848 847 845 844 842 841 839 838 837
825 823 808 803 805 800 801 808 813 816 820 824 820 822 833 839 848 860 863 863 863 858 850 845 850 862 863 851 843 840 839 839 839 840 841 843 847 851 852 855 857 858 859 860 861 861 862 862 862 862 862 862 862 862 863 864 864 863 863 864 863 863 863 862 862 861 860 860 859 858 858 856 855 853 852 851 850 849 847 846 844 843 841 840 839 837
825 826 807 798 798 796 800 800 797 808 821 820 814 821 828 821 826 847 856 855 856 860 859 858 861 861 855 847 842 841 841 839 840 841 842 844 846 848 853 855 856 858 859 860 861 861 860 860 860 861 861 862 862 861 862 862 863 863 863 862 862 862 862 862 861 861 860 860 859 858 857 856 854 853 852 851 850 849 848 846 845 843 842 840 839 837
825 823 803 797 798 793 796 796 793 805 816 816 817 822 817 808 816 839 856 855 853 863 869 866 866 862 855 851 846 846 845 840 842 845 844 845 846 849 853 855 856 858 859 860 860 858 858 858 859 859 859 860 860 861 862 862 862 862 861 861 861 861 861 861 861 861 860 859 859 857 856 855 854 853 852 851 850 849 847 846 845 843 842 841 839 838
819 822 807 800 803 795 790 793 794 797 802 812 820 814 807 810 814 826 850 859 859 871 874 867 869 868 866 864 853 849 849 844 845 847 846 848 848 850 854 854 856 857 858 859 857 856 856 856 857 858 857 858 859 860 861 861 861 860 860 860 860 860 860 861 861 860 859 859 858 857 855 854 854 852 851 850 849 848 847 846 845 843 842 841 839 838
810 823 816 802 804 800 791 796 804 800 796 803 809 803 806 822 825 826 843 854 862 876 876 870 870 868 865 863 855 853 851 845 846 847 848 850 849 851 853 854 856 857 857 857 856 855 855 854 855 856 855 856 857 859 860 859 859 859 860 860 859 859 859 859 860 859 858 858 857 856 855 854 853 852 851 850 849 848 846 845 844 843 842 841 839 838
806 822 826 809 802 804 802 808 818 815 803 800 802 803 808 818 824 828 833 840 854 872 877 875 875 866 855 851 850 850 847 844 845 845 846 848 848 849 852 854 855 855 855 855 854 854 853 852 853 853 854 855 856 857 858 857 858 858 859 859 858 858 858 858 859 858 857 857 856 855 854 853 852 851 851 850 848 847 846 845 844 842 842 840 839 837
807 819 828 817 807 812 817 817 820 819 814 811 813 817 818 817 819 824 828 833 843 859 870 878 880 864 843 838 842 842 842 841 841 841 845 847 847 848 850 852 853 853 852 852 851 851 851 850 851 852 852 853 854 855 856 856 857 858 858 858 858 858 857 857 857 857 856 855 854 854 853 852 851 850 850 849 848 847 845 844 843 842 841 839 838 837
811 818 826 825 820 823 822 814 811 813 813 816 820 823 824 822 823 832 839 837 837 849 860 868 875 861 836 832 835 835 837 839 837 840 845 847 846 847 848 849 849 850 849 849 848 849 849 848 849 850 851 852 853 853 854 855 855 856 857 857 857 857 856 856 856 855 855 854 853 853 852 852 851 850 849 848 847 846 845 844 843 841 840 839 837 836
809 816 824 829 826 823 819 811 810 811 809 812 817 820 822 823 826 836 844 841 842 852 854 857 866 856 834 829 832 831 834 836 837 840 844 845 844 844 846 847 846 846 846 846 847 847 847 847 848 848 848 850 851 851 852 853 853 854 855 855 855 855 855 855 855 854 854 853 852 852 852 851 851 850 849 848 847 846 844 843 842 841 839 838 837 835
808 820 828 831 827 819 813 809 808 809 810 815 820 819 820 823 825 830 835 837 844 853 852 856 867 855 834 830 831 830 834 836 837 839 841 844 844 843 845 845 844 844 845 846 846 845 845 845 845 846 846 847 849 850 851 851 852 853 853 853 854 854 854 854 853 853 853 852 852 851 851 851 850 849 848 847 846 845 844 843 841 840 839 837 836 834
814 827 831 837 842 838 831 828 823 819 818 822 824 821 819 821 821 826 832 834 844 853 851 855 865 855 838 834 832 831 835 838 838 837 837 840 842 842 843 842 842 844 845 846 845 844 843 843 843 844 845 846 848 849 850 851 851 852 852 852 852 852 853 852 852 852 852 852 851 851 850 850 849 848 847 846 845 844 843 842 840 839 838 837 835 834
814 827 827 836 851 854 852 848 840 832 828 827 827 824 823 823 822 827 835 838 846 853 849 850 857 851 840 838 836 834 836 838 838 838 837 837 839 841 841 841 842 843 843 843 843 842 842 841 842 843 844 846 847 849 850 850 850 850 851 852 852 852 852 851 851 851 851 851 850 850 850 849 848 847 846 845 844 843 842 841 840 838 837 836 834 833
815 825 824 828 837 841 841 838 832 830 831 833 832 828 827 828 827 830 838 843 847 849 850 849 848 848 846 843 840 839 838 838 838 839 839 838 839 840 840 840 841 840 840 841 841 841 841 840 841 842 844 845 847 848 849 849 849 850 851 851 852 852 851 851 851 850 850 850 849 849 849 848 847 847 845 845 843 842 841 840 839 837 836 835 833 831
817 827 826 825 828 829 828 826 825 826 829 832 833 831 829 828 828 830 836 842 845 849 854 851 843 847 850 844 839 840 839 837 837 837 836 837 837 838 838 839 839 838 839 840 840 840 840 840 841 842 843 845 846 847 848 848 849 850 851 851 851 851 850 850 849 849 849 849 848 848 847 847 847 845 844 844 842 841 840 839 838 836 835 834 832 830
818 828 827 825 827 826 824 823 822 823 826 828 829 830 830 828 828 830 835 839 840 843 851 849 843 846 848 842 837 836 834 833 835 834 833 834 836 837 837 837 837 838 838 840 840 840 840 841 842 843 844 844 845 847 847 848 850 850 851 851 850 850 849 849 848 848 848 848 847 847 846 846 845 844 843 842 841 840 838 837 836 835 834 832 831 829
818 825 825 824 827 827 823 822 822 822 825 827 829 830 830 829 829 830 833 836 836 839 845 845 844 844 841 837 835 833 832 833 834 834 833 832 834 836 836 837 837 838 839 840 840 840 840 840 841 843 844 844 845 846 847 849 850 850 850 850 850 849 848 848 848 847 847 847 846 846 845 845 844 843 842 841 840 838 837 836 835 834 832 831 830 828
816 825 826 823 828 831 825 822 824 826 826 829 832 834 832 832 833 833 834 836 838 846 847 844 845 845 838 835 835 834 834 834 834 834 834 833 833 833 836 838 838 839 840 840 839 840 840 840 841 842 843 844 845 846 847 848 849 849 849 849 849 848 847 847 847 846 846 845 845 844 844 843 842 841 841 839 838 837 836 835 834 832 831 830 828 827
815 825 827 826 834 836 827 824 828 827 826 832 835 834 832 832 833 833 833 832 836 844 847 846 847 845 838 835 836 835 834 834 835 835 835 835 834 834 836 838 839 839 840 840 840 841 841 841 841 841 842 844 845 846 847 848 848 849 848 848 848 847 846 846 845 845 845 844 843 843 842 841 840 840 839 838 837 836 835 833 832 831 829 828 827 825
817 822 827 832 839 838 829 829 830 829 835 842 837 831 832 832 832 833 832 831 831 835 840 843 843 840 836 835 836 837 836 835 836 836 836 837 836 836 838 838 839 840 839 840 841 841 841 842 841 842 843 844 845 846 846 847 847 847 847 846 846 845 845 844 844 844 843 842 842 841 840 840 838 838 837 836 835 834 833 832 830 829 827 826 825 823
819 820 828 833 835 837 835 832 833 841 850 846 831 825 827 827 828 832 832 831 831 830 832 835 836 835 835 834 834 838 839 837 836 836 837 837 838 839 840 840 840 841 841 842 843 842 842 842 842 843 844 844 845 845 845 846 845 845 845 845 845 844 843 843 842 842 842 841 840 839 838 838 836 835 835 833 833 832 830 829 828 826 825 824 822 821
819 820 827 831 832 837 837 836 845 856 850 835 825 824 824 823 825 829 832 832 831 830 830 832 834 833 832 832 833 836 839 838 837 837 837 837 838 839 841 841 842 843 843 844 844 843 843 843 843 843 843 843 844 844 844 844 844 844 844 843 843 842 842 842 841 840 840 839 838 837 836 835 834 833 832 831 830 829 828 827 825 824 823 821 820 818
817 820 825 831 835 839 840 843 852 852 839 828 825 824 823 825 826 829 835 836 832 830 829 831 834 833 831 833 835 836 837 836 836 837 838 838 837 838 840 841 842 842 843 843 842 842 842 842 842 842 842 842 843 842 843 843 842 842 842 841 841 841 840 840 840 839 838 837 836 835 834 833 832 831 830 829 827 826 825 824 823 822 820 819 817 816
814 819 824 830 837 841 847 851 849 846 841 834 828 823 822 824 823 827 837 839 832 830 830 829 832 834 832 834 837 836 835 836 838 840 838 837 837 836 837 839 839 840 840 840 840 841 841 841 841 841 841 841 841 841 841 841 841 841 840 840 840 839 839 839 838 837 836 835 834 833 832 831 830 828 827 826 825 824 823 822 820 819 818 816 815 813
813 817 822 830 837 840 846 853 855 856 852 839 827 822 820 821 820 822 834 839 831 828 829 827 829 831 830 832 836 836 835 839 844 842 838 837 837 836 837 838 837 837 838 838 838 839 839 839 839 839 839 839 840 840 839 839 839 839 839 839 838 838 837 837 836 835 833 832 831 831 830 829 827 826 825 823 822 821 820 819 818 817 815 814 812 811
816 820 822 827 835 838 841 848 855 855 845 832 825 821 820 822 820 821 838 845 833 826 827 825 826 829 828 829 833 834 836 844 847 841 836 836 836 834 836 837 835 835 836 836 836 836 836 837 837 837 838 838 838 838 838 838 838 837 837 837 836 836 835 834 833 832 831 830 829 828 827 826 825 823 822 820 819 818 817 816 815 814 813 811 810 808
820 824 827 829 835 840 842 845 848 845 836 828 824 821 821 819 818 831 851 848 828 823 826 823 823 827 826 827 830 831 834 840 840 835 832 833 833 833 833 834 834 834 834 834 834 835 835 835 835 836 836 836 836 836 836 836 836 836 836 835 834 834 833 832 831 830 829 828 827 826 825 823 822 820 819 817 816 815 814 814 812 811 810 809 807 805
826 828 834 835 836 841 843 845 846 841 831 824 822 820 819 819 827 844 850 834 819 822 825 821 822 825 824 825 827 828 829 830 829 829 830 831 832 832 831 831 831 832 831 832 833 833 834 834 834 834 834 835 835 835 835 835 835 834 834 833 833 832 830 830 829 827 827 826 824 823 822 820 819 817 816 814 813 812 812 811 810 809 807 806 804 803
830 833 838 838 837 841 841 843 848 844 828 818 819 819 818 826 838 840 830 820 818 821 822 821 822 823 823 824 825 825 826 825 826 827 828 829 830 830 830 830 830 830 831 831 832 832 832 833 833 833 833 833 833 833 833 833 833 832 832 831 830 829 828 828 826 825 824 823 822 821 819 818 817 815 813 812 811 809 809 808 807 806 804 803 801 800
825 831 837 835 834 840 843 847 853 845 825 814 819 821 820 826 829 823 818 819 820 819 820 823 822 822 823 824 824 824 824 825 826 826 827 828 828 828 828 828 829 829 830 830 831 831 831 831 831 831 832 832 832 832 832 832 831 830 830 829 828 827 826 825 824 823 822 821 819 818 816 815 814 812 811 810 808 807 807 806 805 804 802 801 799 797
821 826 832 831 829 836 842 841 836 826 814 811 816 818 816 815 814 813 815 818 818 818 821 821 820 822 822 821 823 825 825 825 826 826 826 827 827 826 827 827 827 828 828 829 829 829 829 830 830 830 830 831 831 831 830 830 829 829 828 827 826 825 824 823 822 821 820 819 817 816 815 814 813 811 810 808 807 806 805 803 803 802 801 799 797 795
819 818 822 822 822 826 829 824 817 811 810 811 811 811 810 810 810 811 812 814 816 818 818 818 820 821 820 820 822 824 824 825 824 825 826 826 826 826 826 826 827 827 827 827 828 828 828 828 829 829 830 829 829 829 829 828 828 827 826 825 824 824 823 822 821 820 819 818 817 816 815 814 812 810 809 807 806 804 803 802 802 801 799 798 795 793
814 812 814 816 817 820 819 815 812 811 810 810 810 810 809 810 811 812 811 812 814 814 814 816 818 818 819 820 821 822 823 823 823 824 825 825 825 826 825 825 826 826 826 826 826 826 827 827 828 829 829 828 828 828 828 827 826 825 825 824 824 823 822 821 820 819 819 818 817 815 814 813 811 809 807 806 804 803 803 802 801 799 797 795 793 792
811 811 813 814 817 822 822 818 814 812 810 810 811 811 810 810 811 812 811 812 812 812 813 814 815 816 818 819 819 820 822 822 823 824 825 825 826 825 824 824 825 824 825 825 825 825 827 827 828 828 828 828 827 827 827 826 826 825 825 824 824 823 822 820 819 818 817 816 815 814 813 811 810 808 806 805 804 803 803 802 800 798 796 793 791 789
814 811 813 815 818 821 823 820 816 815 813 811 810 810 810 810 811 811 811 812 812 813 813 813 814 815 816 817 818 819 821 823 824 824 825 827 826 826 825 825 825 824 825 825 825 826 827 827 827 827 827 827 827 827 827 826 825 825 825 824 824 823 822 821 819 818 817 816 815 813 812 810 808 807 805 804 804 803 802 800 798 796 794 791 789 786
812 812 815 817 819 821 822 819 817 817 816 813 811 810 810 809 809 810 812 812 812 813 812 812 813 814 814 816 817 818 821 824 824 824 826 828 827 827 827 826 825 825 825 825 826 826 826 826 827 827 827 827 827 827 826 826 825 825 825 825 825 824 822 821 819 818 816 815 814 812 811 809 807 806 804 803 802 801 800 798 796 793 790 789 787 785
812 815 817 819 822 824 821 817 815 817 818 815 812 810 809 809 809 810 811 812 812 812 812 813 813 814 814 816 817 819 822 824 824 824 826 827 827 827 827 826 826 826 826 826 826 826 826 827 827 827 827 827 827 826 826 826 826 826 826 825 825 823 822 820 819 817 816 814 812 811 809 808 807 805 803 802 800 798 797 795 794 791 788 786 784 784
810 811 812 815 819 819 815 812 812 814 815 814 811 810 810 809 809 810 811 812 812 812 812 813 814 816 817 817 817 819 821 823 823 823 824 825 826 826 826 826 826 826 826 827 827 827 827 827 827 827 827 827 827 827 827 827 827 826 826 825 824 822 821 819 818 816 815 813 812 810 809 807 806 804 802 800 798 796 793 791 789 788 787 784 782 781